When you browse on this site, cookies collect data to enhance your experience and personalize the content and advertising you see.
Visit our Privacy Policy to learn more. By continuing to use the site, you agree to this use of cookies and data.
  • In United Kingdom
  • List of Countries
  • For 7 days
  • Water Temperature
  • Satellite Maps
  • Weather Map
  • Weather Widgets
  • user-avatar
    Login

    Hourly Weather Charkesar

    Today, 16 January, Wednesday

    Time Temperature Precipitation Wind Pressure Humidity
    00:00 -1°C° 0.1 mm 2 mps 651 mmHg 87%
    01:00 -1°C° 0.1 mm 2 mps 651 mmHg 87%
    02:00 -1°C° 0.1 mm 2 mps 651 mmHg 86%
    03:00 -1°C° 0 mm 2 mps 652 mmHg 84%
    04:00 -2°C° 0 mm 2 mps 652 mmHg 82%
    05:00 -2°C° 0 mm 2 mps 652 mmHg 78%
    06:00 -2°C° 0 mm 2 mps 652 mmHg 75%
    07:00 -2°C° 0 mm 2 mps 652 mmHg 72%
    08:00 -3°C° 0 mm 2 mps 652 mmHg 69%
    09:00 -1°C° 0 mm 2 mps 653 mmHg 69%
    10:00 +2°C° 0 mm 1 mps 653 mmHg 69%
    11:00 +3°C° 0 mm 1 mps 653 mmHg 69%
    12:00 +3°C° 0 mm 1 mps 654 mmHg 71%
    13:00 +4°C° 0 mm 1 mps 654 mmHg 73%
    14:00 +4°C° 0 mm 1 mps 654 mmHg 75%
    15:00 +3°C° 0 mm 1 mps 654 mmHg 79%
    16:00 +2°C° 0 mm 1 mps 654 mmHg 83%
    17:00 +1°C° 0 mm 1 mps 654 mmHg 86%
    18:00 +1°C° 0 mm 1 mps 654 mmHg 84%
    19:00 +1°C° 0 mm 1 mps 654 mmHg 82%
    20:00 -2°C° 0 mm 2 mps 655 mmHg 80%
    21:00 -2°C° 0 mm 2 mps 655 mmHg 77%
    22:00 -2°C° 0 mm 2 mps 655 mmHg 75%
    23:00 -2°C° 0 mm 2 mps 655 mmHg 73%

    Tomorrow, 17 January, Thursday

    Time Temperature Precipitation Wind Pressure Humidity
    00:00 -2°C° 0 mm 2 mps 655 mmHg 71%
    01:00 -2°C° 0 mm 2 mps 655 mmHg 68%
    02:00 -2°C° 0 mm 2 mps 655 mmHg 66%
    03:00 -2°C° 0 mm 2 mps 655 mmHg 65%
    04:00 -2°C° 0 mm 2 mps 655 mmHg 63%
    05:00 -3°C° 0 mm 2 mps 655 mmHg 62%
    06:00 -3°C° 0 mm 2 mps 655 mmHg 61%
    07:00 -3°C° 0 mm 2 mps 655 mmHg 60%
    08:00 -3°C° 0 mm 2 mps 655 mmHg 59%
    09:00 -1°C° 0 mm 2 mps 655 mmHg 56%
    10:00 +3°C° 0 mm 1 mps 655 mmHg 54%
    11:00 +4°C° 0 mm 1 mps 655 mmHg 51%
    12:00 +4°C° 0 mm 2 mps 654 mmHg 51%
    13:00 +4°C° 0 mm 2 mps 654 mmHg 51%
    14:00 +5°C° 0 mm 2 mps 653 mmHg 51%
    15:00 +4°C° 0 mm 2 mps 653 mmHg 53%
    16:00 +3°C° 0 mm 2 mps 653 mmHg 54%
    17:00 +2°C° 0 mm 2 mps 653 mmHg 56%
    18:00 +1°C° 0 mm 2 mps 653 mmHg 52%
    19:00 +1°C° 0 mm 2 mps 653 mmHg 49%
    20:00 -1°C° 0 mm 2 mps 653 mmHg 45%
    21:00 -1°C° 0 mm 2 mps 652 mmHg 43%
    22:00 -1°C° 0 mm 2 mps 652 mmHg 41%
    23:00 -1°C° 0 mm 2 mps 652 mmHg 39%

    Day after tomorrow, 18 January, Friday

    Time Temperature Precipitation Wind Pressure Humidity
    00:00 -1°C° 0 mm 2 mps 651 mmHg 37%
    01:00 -1°C° 0 mm 2 mps 651 mmHg 36%
    02:00 -1°C° 0 mm 2 mps 650 mmHg 35%
    03:00 -1°C° 0 mm 2 mps 650 mmHg 35%
    04:00 -1°C° 0 mm 2 mps 650 mmHg 35%
    05:00 -1°C° 0 mm 2 mps 649 mmHg 35%
    06:00 -1°C° 0 mm 2 mps 649 mmHg 34%
    07:00 -1°C° 0 mm 2 mps 649 mmHg 34%
    08:00 -1°C° 0 mm 2 mps 649 mmHg 34%
    09:00 +2°C° 0 mm 2 mps 648 mmHg 36%
    10:00 +4°C° 0 mm 2 mps 648 mmHg 38%
    11:00 +6°C° 0 mm 1 mps 648 mmHg 40%
    12:00 +7°C° 0 mm 1 mps 647 mmHg 41%
    13:00 +7°C° 0 mm 1 mps 647 mmHg 43%
    14:00 +8°C° 0 mm 1 mps 647 mmHg 44%
    15:00 +7°C° 0 mm 1 mps 647 mmHg 43%
    16:00 +7°C° 0 mm 1 mps 647 mmHg 41%
    17:00 +6°C° 0 mm 1 mps 647 mmHg 39%
    18:00 +6°C° 0 mm 1 mps 648 mmHg 40%
    19:00 +6°C° 0 mm 1 mps 648 mmHg 41%
    20:00 +6°C° 0 mm 1 mps 649 mmHg 42%
    21:00 +6°C° 0.1 mm 1 mps 649 mmHg 47%
    22:00 +5°C° 0.1 mm 1 mps 650 mmHg 53%
    23:00 +4°C° 0.1 mm 2 mps 650 mmHg 58%

    19 January, Saturday

    Time Temperature Precipitation Wind Pressure Humidity
    00:00 +5°C° 0.2 mm 1 mps 651 mmHg 60%
    01:00 +4°C° 0.2 mm 1 mps 651 mmHg 62%
    02:00 +4°C° 0.2 mm 1 mps 651 mmHg 64%
    03:00 +4°C° 0 mm 1 mps 651 mmHg 64%
    04:00 +3°C° 0 mm 1 mps 651 mmHg 63%
    05:00 +3°C° 0 mm 1 mps 651 mmHg 63%
    06:00 +1°C° 0 mm 2 mps 651 mmHg 64%
    07:00 +1°C° 0 mm 2 mps 652 mmHg 64%
    08:00 +1°C° 0 mm 2 mps 652 mmHg 65%
    09:00 +4°C° 0 mm 1 mps 652 mmHg 61%
    10:00 +5°C° 0 mm 1 mps 653 mmHg 58%
    11:00 +7°C° 0 mm 1 mps 653 mmHg 54%
    12:00 +7°C° 0 mm 1 mps 653 mmHg 53%
    13:00 +7°C° 0 mm 1 mps 652 mmHg 52%
    14:00 +8°C° 0 mm 1 mps 652 mmHg 51%
    15:00 +7°C° 0 mm 1 mps 652 mmHg 52%
    16:00 +6°C° 0 mm 1 mps 652 mmHg 54%
    17:00 +5°C° 0 mm 1 mps 651 mmHg 55%
    18:00 +4°C° 0 mm 1 mps 652 mmHg 55%
    19:00 +3°C° 0 mm 2 mps 652 mmHg 54%
    20:00 +3°C° 0 mm 2 mps 652 mmHg 53%
    21:00 +2°C° 0 mm 2 mps 652 mmHg 53%
    22:00 +2°C° 0 mm 2 mps 651 mmHg 54%
    23:00 +2°C° 0 mm 2 mps 651 mmHg 54%

    20 January, Sunday

    Time Temperature Precipitation Wind Pressure Humidity
    00:00 +2°C° 0 mm 2 mps 651 mmHg 55%
    01:00 +3°C° 0 mm 1 mps 650 mmHg 56%
    02:00 +4°C° 0 mm 1 mps 650 mmHg 56%
    03:00 +3°C° 0 mm 1 mps 650 mmHg 56%
    04:00 +3°C° 0 mm 1 mps 650 mmHg 57%
    05:00 +2°C° 0 mm 1 mps 650 mmHg 57%
    06:00 +2°C° 0 mm 1 mps 650 mmHg 58%
    07:00 +2°C° 0 mm 1 mps 651 mmHg 60%
    08:00 +2°C° 0 mm 1 mps 651 mmHg 61%
    09:00 +3°C° 0 mm 1 mps 651 mmHg 62%
    10:00 +4°C° 0 mm 1 mps 652 mmHg 62%
    11:00 +5°C° 0 mm 1 mps 652 mmHg 62%
    12:00 +4°C° 0 mm 2 mps 652 mmHg 63%
    13:00 +4°C° 0 mm 2 mps 652 mmHg 64%
    14:00 +4°C° 0 mm 2 mps 652 mmHg 65%
    15:00 +3°C° 0.1 mm 2 mps 653 mmHg 68%
    16:00 +2°C° 0.1 mm 2 mps 653 mmHg 72%
    17:00 +3°C° 0.1 mm 1 mps 653 mmHg 75%
    18:00 +2°C° 0.1 mm 1 mps 653 mmHg 76%
    19:00 +2°C° 0.1 mm 1 mps 654 mmHg 78%
    20:00 +2°C° 0.1 mm 1 mps 654 mmHg 79%
    21:00 +1°C° 0.1 mm 1 mps 654 mmHg 80%
    22:00 +1°C° 0.1 mm 1 mps 655 mmHg 80%
    23:00 +1°C° 0.1 mm 1 mps 655 mmHg 81%

    21 January, Monday

    Time Temperature Precipitation Wind Pressure Humidity
    00:00 0°C° 0.1 mm 1 mps 655 mmHg 82%
    01:00 0°C° 0.1 mm 1 mps 655 mmHg 83%
    02:00 -1°C° 0.1 mm 1 mps 655 mmHg 84%
    03:00 -1°C° 0.1 mm 1 mps 655 mmHg 85%
    04:00 -2°C° 0.1 mm 0 mps 655 mmHg 85%
    05:00 -2°C° 0.1 mm 0 mps 655 mmHg 86%
    06:00 -3°C° 0.1 mm 0 mps 656 mmHg 85%
    07:00 -3°C° 0.1 mm 0 mps 656 mmHg 85%
    08:00 -3°C° 0.1 mm 0 mps 656 mmHg 84%
    09:00 -1°C° 0 mm 1 mps 656 mmHg 81%
    10:00 0°C° 0 mm 1 mps 656 mmHg 77%
    11:00 +1°C° 0 mm 1 mps 656 mmHg 74%
    12:00 +1°C° 0 mm 1 mps 655 mmHg 73%
    13:00 +2°C° 0 mm 1 mps 655 mmHg 72%
    14:00 +2°C° 0 mm 1 mps 654 mmHg 71%
    15:00 +2°C° 0 mm 1 mps 654 mmHg 73%
    16:00 +1°C° 0 mm 1 mps 654 mmHg 75%
    17:00 +1°C° 0 mm 1 mps 654 mmHg 78%
    18:00 0°C° 0 mm 1 mps 654 mmHg 77%
    19:00 0°C° 0 mm 1 mps 654 mmHg 77%
    20:00 -1°C° 0 mm 1 mps 654 mmHg 77%
    21:00 -1°C° 0 mm 1 mps 654 mmHg 77%
    22:00 -1°C° 0 mm 1 mps 653 mmHg 77%
    23:00 -1°C° 0 mm 1 mps 653 mmHg 77%
    Show more